Year,Month,Day,Hour,Minute,Value (Times are PST for windspeed in km/hr)
2021,11,08,00,00,0.00
2021,11,08,00,01,0.00
2021,11,08,00,02,0.00
2021,11,08,00,03,0.00
2021,11,08,00,04,0.00
2021,11,08,00,05,0.00
2021,11,08,00,06,0.00
2021,11,08,00,07,0.00
2021,11,08,00,08,0.00
2021,11,08,00,09,0.00
2021,11,08,00,10,0.00
2021,11,08,00,11,0.00
2021,11,08,00,12,0.00
2021,11,08,00,13,0.00
2021,11,08,00,14,0.00
2021,11,08,00,15,0.00
2021,11,08,00,16,0.00
2021,11,08,00,17,0.00
2021,11,08,00,18,0.00
2021,11,08,00,19,0.00
2021,11,08,00,20,0.00
2021,11,08,00,21,0.00
2021,11,08,00,22,0.00
2021,11,08,00,23,0.00
2021,11,08,00,24,0.00
2021,11,08,00,25,0.00
2021,11,08,00,26,0.00
2021,11,08,00,27,0.00
2021,11,08,00,28,0.00
2021,11,08,00,29,0.00
2021,11,08,00,30,0.00
2021,11,08,00,31,0.00
2021,11,08,00,32,0.00
2021,11,08,00,33,0.00
2021,11,08,00,34,0.00
2021,11,08,00,35,0.00
2021,11,08,00,36,0.00
2021,11,08,00,37,0.00
2021,11,08,00,38,0.00
2021,11,08,00,39,0.00
2021,11,08,00,40,0.00
2021,11,08,00,41,0.00
2021,11,08,00,42,0.00
2021,11,08,00,43,0.00
2021,11,08,00,44,0.00
2021,11,08,00,45,0.00
2021,11,08,00,46,0.00
2021,11,08,00,47,0.00
2021,11,08,00,48,0.00
2021,11,08,00,49,0.00
2021,11,08,00,50,0.00
2021,11,08,00,51,0.00
2021,11,08,00,52,0.00
2021,11,08,00,53,0.00
2021,11,08,00,54,0.00
2021,11,08,00,55,0.00
2021,11,08,00,56,0.00
2021,11,08,00,57,0.00
2021,11,08,00,58,0.00
2021,11,08,00,59,0.00
2021,11,08,01,00,0.00
2021,11,08,01,01,0.00
2021,11,08,01,02,0.00
2021,11,08,01,03,0.00
2021,11,08,01,04,0.00
2021,11,08,01,05,0.00
2021,11,08,01,06,0.00
2021,11,08,01,07,0.00
2021,11,08,01,08,0.00
2021,11,08,01,09,0.00
2021,11,08,01,10,0.00
2021,11,08,01,11,0.00
2021,11,08,01,12,0.00
2021,11,08,01,13,0.00
2021,11,08,01,14,0.00
2021,11,08,01,15,0.00
2021,11,08,01,16,0.00
2021,11,08,01,17,0.00
2021,11,08,01,18,0.00
2021,11,08,01,19,0.00
2021,11,08,01,20,0.00
2021,11,08,01,21,0.00
2021,11,08,01,22,0.00
2021,11,08,01,23,0.00
2021,11,08,01,24,0.00
2021,11,08,01,25,0.00
2021,11,08,01,26,0.00
2021,11,08,01,27,0.00
2021,11,08,01,28,0.00
2021,11,08,01,29,0.00
2021,11,08,01,30,0.00
2021,11,08,01,31,0.00
2021,11,08,01,32,0.00
2021,11,08,01,33,0.00
2021,11,08,01,34,0.00
2021,11,08,01,35,0.00
2021,11,08,01,36,0.00
2021,11,08,01,37,0.00
2021,11,08,01,38,0.00
2021,11,08,01,39,0.00
2021,11,08,01,40,0.00
2021,11,08,01,41,0.00
2021,11,08,01,42,0.00
2021,11,08,01,43,0.00
2021,11,08,01,44,0.00
2021,11,08,01,45,0.00
2021,11,08,01,46,0.00
2021,11,08,01,47,0.00
2021,11,08,01,48,0.00
2021,11,08,01,49,0.00
2021,11,08,01,50,0.00
2021,11,08,01,51,0.00
2021,11,08,01,52,0.00
2021,11,08,01,53,0.00
2021,11,08,01,54,0.00
2021,11,08,01,55,0.00
2021,11,08,01,56,0.00
2021,11,08,01,57,0.00
2021,11,08,01,58,0.00
2021,11,08,01,59,0.00
2021,11,08,02,00,0.00
2021,11,08,02,01,0.00
2021,11,08,02,02,0.00
2021,11,08,02,03,0.00
2021,11,08,02,04,0.00
2021,11,08,02,05,0.00
2021,11,08,02,06,0.00
2021,11,08,02,07,0.00
2021,11,08,02,08,0.00
2021,11,08,02,09,0.00
2021,11,08,02,10,0.00
2021,11,08,02,11,0.00
2021,11,08,02,12,0.00
2021,11,08,02,13,0.00
2021,11,08,02,14,0.00
2021,11,08,02,15,0.00
2021,11,08,02,16,0.00
2021,11,08,02,17,0.00
2021,11,08,02,18,0.00
2021,11,08,02,19,0.00
2021,11,08,02,20,0.00
2021,11,08,02,21,0.00
2021,11,08,02,22,0.00
2021,11,08,02,23,0.00
2021,11,08,02,24,0.00
2021,11,08,02,25,0.00
2021,11,08,02,26,0.00
2021,11,08,02,27,0.00
2021,11,08,02,28,0.00
2021,11,08,02,29,0.00
2021,11,08,02,30,0.00
2021,11,08,02,31,0.00
2021,11,08,02,32,0.00
2021,11,08,02,33,0.00
2021,11,08,02,34,0.00
2021,11,08,02,35,0.00
2021,11,08,02,36,0.00
2021,11,08,02,37,0.00
2021,11,08,02,38,0.00
2021,11,08,02,39,0.00
2021,11,08,02,40,0.00
2021,11,08,02,41,0.00
2021,11,08,02,42,0.00
2021,11,08,02,43,0.00
2021,11,08,02,44,0.00
2021,11,08,02,45,0.00
2021,11,08,02,46,0.00
2021,11,08,02,47,0.00
2021,11,08,02,48,0.00
2021,11,08,02,49,0.00
2021,11,08,02,50,0.00
2021,11,08,02,51,0.00
2021,11,08,02,52,0.00
2021,11,08,02,53,0.00
2021,11,08,02,54,0.00
2021,11,08,02,55,0.00
2021,11,08,02,56,0.00
2021,11,08,02,57,0.00
2021,11,08,02,58,0.00
2021,11,08,02,59,0.00
2021,11,08,03,00,0.00
2021,11,08,03,01,0.00
2021,11,08,03,02,0.00
2021,11,08,03,03,0.00
2021,11,08,03,04,0.00
2021,11,08,03,05,0.00
2021,11,08,03,06,0.00
2021,11,08,03,07,0.00
2021,11,08,03,08,0.00
2021,11,08,03,09,0.00
2021,11,08,03,10,0.00
2021,11,08,03,11,0.00
2021,11,08,03,12,0.00
2021,11,08,03,13,0.00
2021,11,08,03,14,0.00
2021,11,08,03,15,0.00
2021,11,08,03,16,0.00
2021,11,08,03,17,0.00
2021,11,08,03,18,0.00
2021,11,08,03,19,0.00
2021,11,08,03,20,0.00
2021,11,08,03,21,0.00
2021,11,08,03,22,0.00
2021,11,08,03,23,0.00
2021,11,08,03,24,0.00
2021,11,08,03,25,0.00
2021,11,08,03,26,0.00
2021,11,08,03,27,0.00
2021,11,08,03,28,0.00
2021,11,08,03,29,0.00
2021,11,08,03,30,0.00
2021,11,08,03,31,0.00
2021,11,08,03,32,0.00
2021,11,08,03,33,0.00
2021,11,08,03,34,0.00
2021,11,08,03,35,0.00
2021,11,08,03,36,0.00
2021,11,08,03,37,0.00
2021,11,08,03,38,0.00
2021,11,08,03,39,0.00
2021,11,08,03,40,0.00
2021,11,08,03,41,0.00
2021,11,08,03,42,0.00
2021,11,08,03,43,0.00
2021,11,08,03,44,0.00
2021,11,08,03,45,0.00
2021,11,08,03,46,0.00
2021,11,08,03,47,0.00
2021,11,08,03,48,0.00
2021,11,08,03,49,0.00
2021,11,08,03,50,0.00
2021,11,08,03,51,0.00
2021,11,08,03,52,0.00
2021,11,08,03,53,0.00
2021,11,08,03,54,0.00
2021,11,08,03,55,0.00
2021,11,08,03,56,0.00
2021,11,08,03,57,0.00
2021,11,08,03,58,0.00
2021,11,08,03,59,0.00
2021,11,08,04,00,0.00
2021,11,08,04,01,0.00
2021,11,08,04,02,0.00
2021,11,08,04,03,0.00
2021,11,08,04,04,0.00
2021,11,08,04,05,0.00
2021,11,08,04,06,0.00
2021,11,08,04,07,0.00
2021,11,08,04,08,0.00
2021,11,08,04,09,0.00
2021,11,08,04,10,0.00
2021,11,08,04,11,0.00
2021,11,08,04,12,0.00
2021,11,08,04,13,0.00
2021,11,08,04,14,0.00
2021,11,08,04,15,0.00
2021,11,08,04,16,0.00
2021,11,08,04,17,0.00
2021,11,08,04,18,0.00
2021,11,08,04,19,0.00
2021,11,08,04,20,0.00
2021,11,08,04,21,0.00
2021,11,08,04,22,0.00
2021,11,08,04,23,0.00
2021,11,08,04,24,0.00
2021,11,08,04,25,0.00
2021,11,08,04,26,0.00
2021,11,08,04,27,0.00
2021,11,08,04,28,0.00
2021,11,08,04,29,0.00
2021,11,08,04,30,0.00
2021,11,08,04,31,0.00
2021,11,08,04,32,0.00
2021,11,08,04,33,0.00
2021,11,08,04,34,0.00
2021,11,08,04,35,0.00
2021,11,08,04,36,0.00
2021,11,08,04,37,0.00
2021,11,08,04,38,0.00
2021,11,08,04,39,0.00
2021,11,08,04,40,0.00
2021,11,08,04,41,0.00
2021,11,08,04,42,0.00
2021,11,08,04,43,0.00
2021,11,08,04,44,0.00
2021,11,08,04,45,0.00
2021,11,08,04,46,0.00
2021,11,08,04,47,0.00
2021,11,08,04,48,0.00
2021,11,08,04,49,0.00
2021,11,08,04,50,0.00
2021,11,08,04,51,0.00
2021,11,08,04,52,0.00
2021,11,08,04,53,0.00
2021,11,08,04,54,0.00
2021,11,08,04,55,0.00
2021,11,08,04,56,0.00
2021,11,08,04,57,0.00
2021,11,08,04,58,0.00
2021,11,08,04,59,0.00
2021,11,08,05,00,0.00
2021,11,08,05,01,0.00
2021,11,08,05,02,0.00
2021,11,08,05,03,0.00
2021,11,08,05,04,0.00
2021,11,08,05,05,0.00
2021,11,08,05,06,0.00
2021,11,08,05,07,0.00
2021,11,08,05,08,0.00
2021,11,08,05,09,0.00
2021,11,08,05,10,0.00
2021,11,08,05,11,0.00
2021,11,08,05,12,0.00
2021,11,08,05,13,0.00
2021,11,08,05,14,2.60
2021,11,08,05,15,0.40
2021,11,08,05,16,0.90
2021,11,08,05,17,0.00
2021,11,08,05,18,0.50
2021,11,08,05,19,0.40
2021,11,08,05,20,0.10
2021,11,08,05,21,1.40
2021,11,08,05,22,0.00
2021,11,08,05,23,0.00
2021,11,08,05,24,1.80
2021,11,08,05,25,1.20
2021,11,08,05,26,2.10
2021,11,08,05,27,2.00
2021,11,08,05,28,0.20
2021,11,08,05,29,1.80
2021,11,08,05,30,1.70
2021,11,08,05,31,1.30
2021,11,08,05,32,1.50
2021,11,08,05,33,1.30
2021,11,08,05,34,1.50
2021,11,08,05,35,0.30
2021,11,08,05,36,1.40
2021,11,08,05,37,1.70
2021,11,08,05,38,2.10
2021,11,08,05,39,2.20
2021,11,08,05,40,2.60
2021,11,08,05,41,2.50
2021,11,08,05,42,3.70
2021,11,08,05,43,3.40
2021,11,08,05,44,5.70
2021,11,08,05,45,5.30
2021,11,08,05,46,3.60
2021,11,08,05,47,4.40
2021,11,08,05,48,4.20
2021,11,08,05,49,4.10
2021,11,08,05,50,1.10
2021,11,08,05,51,3.20
2021,11,08,05,52,3.60
2021,11,08,05,53,4.50
2021,11,08,05,54,4.10
2021,11,08,05,55,2.10
2021,11,08,05,56,0.20
2021,11,08,05,57,0.10
2021,11,08,05,58,0.00
2021,11,08,05,59,0.00
2021,11,08,06,00,0.00
2021,11,08,06,01,0.00
2021,11,08,06,02,0.00
2021,11,08,06,03,0.00
2021,11,08,06,04,1.10
2021,11,08,06,05,0.00
2021,11,08,06,06,1.00
2021,11,08,06,07,0.80
2021,11,08,06,08,0.00
2021,11,08,06,09,0.00
2021,11,08,06,10,1.90
2021,11,08,06,11,1.00
2021,11,08,06,12,1.00
2021,11,08,06,13,1.90
2021,11,08,06,14,3.80
2021,11,08,06,15,2.70
2021,11,08,06,16,0.00
2021,11,08,06,17,0.20
2021,11,08,06,18,0.00
2021,11,08,06,19,1.40
2021,11,08,06,20,1.10
2021,11,08,06,21,0.40
2021,11,08,06,22,0.60
2021,11,08,06,23,0.00
2021,11,08,06,24,0.00
2021,11,08,06,25,0.00
2021,11,08,06,26,0.10
2021,11,08,06,27,0.30
2021,11,08,06,28,0.00
2021,11,08,06,29,0.80
2021,11,08,06,30,0.10
2021,11,08,06,31,3.10
2021,11,08,06,32,1.40
2021,11,08,06,33,1.00
2021,11,08,06,34,1.70
2021,11,08,06,35,0.10
2021,11,08,06,36,0.90
2021,11,08,06,37,1.30
2021,11,08,06,38,2.20
2021,11,08,06,39,0.40
2021,11,08,06,40,0.00
2021,11,08,06,41,0.20
2021,11,08,06,42,2.90
2021,11,08,06,43,3.80
2021,11,08,06,44,0.30
2021,11,08,06,45,0.00
2021,11,08,06,46,0.00
2021,11,08,06,47,0.00
2021,11,08,06,48,0.00
2021,11,08,06,49,0.50
2021,11,08,06,50,0.60
2021,11,08,06,51,0.20
2021,11,08,06,52,1.00
2021,11,08,06,53,2.40
2021,11,08,06,54,0.00
2021,11,08,06,55,1.00
2021,11,08,06,56,2.50
2021,11,08,06,57,2.50
2021,11,08,06,58,1.80
2021,11,08,06,59,1.20
2021,11,08,07,00,2.10
2021,11,08,07,01,0.50
2021,11,08,07,02,0.50
2021,11,08,07,03,3.10
2021,11,08,07,04,1.80
2021,11,08,07,05,2.30
2021,11,08,07,06,1.70
2021,11,08,07,07,1.90
2021,11,08,07,08,2.60
2021,11,08,07,09,2.50
2021,11,08,07,10,1.10
2021,11,08,07,11,1.70
2021,11,08,07,12,1.80
2021,11,08,07,13,1.50
2021,11,08,07,14,2.60
2021,11,08,07,15,2.30
2021,11,08,07,16,1.00
2021,11,08,07,17,1.80
2021,11,08,07,18,3.20
2021,11,08,07,19,3.20
2021,11,08,07,20,2.50
2021,11,08,07,21,3.20
2021,11,08,07,22,5.80
2021,11,08,07,23,3.80
2021,11,08,07,24,3.20
2021,11,08,07,25,3.70
2021,11,08,07,26,3.80
2021,11,08,07,27,1.30
2021,11,08,07,28,5.30
2021,11,08,07,29,4.00
2021,11,08,07,30,1.60
2021,11,08,07,31,2.90
2021,11,08,07,32,3.80
2021,11,08,07,33,1.40
2021,11,08,07,34,1.90
2021,11,08,07,35,4.30
2021,11,08,07,36,3.80
2021,11,08,07,37,3.70
2021,11,08,07,38,3.80
2021,11,08,07,39,4.40
2021,11,08,07,40,3.40
2021,11,08,07,41,2.90
2021,11,08,07,42,1.50
2021,11,08,07,43,2.90
2021,11,08,07,44,4.60
2021,11,08,07,45,4.40
2021,11,08,07,46,3.80
2021,11,08,07,47,4.20
2021,11,08,07,48,4.20
2021,11,08,07,49,3.70
2021,11,08,07,50,3.00
2021,11,08,07,51,3.70
2021,11,08,07,52,4.00
2021,11,08,07,53,1.30
2021,11,08,07,54,2.60
2021,11,08,07,55,3.20
2021,11,08,07,56,4.70
2021,11,08,07,57,3.60
2021,11,08,07,58,3.60
2021,11,08,07,59,4.50
2021,11,08,08,00,4.90
2021,11,08,08,01,6.50
2021,11,08,08,02,5.30
2021,11,08,08,03,4.00
2021,11,08,08,04,7.20
2021,11,08,08,05,5.60
2021,11,08,08,06,5.50
2021,11,08,08,07,12.20
2021,11,08,08,08,8.20
2021,11,08,08,09,8.50
2021,11,08,08,10,7.80
2021,11,08,08,11,7.90
2021,11,08,08,12,7.60
2021,11,08,08,13,7.20
2021,11,08,08,14,6.90
2021,11,08,08,15,6.80
2021,11,08,08,16,6.10
2021,11,08,08,17,5.40
2021,11,08,08,18,7.30
2021,11,08,08,19,6.60
2021,11,08,08,20,5.70
2021,11,08,08,21,7.30
2021,11,08,08,22,6.30
2021,11,08,08,23,8.30
2021,11,08,08,24,7.80
2021,11,08,08,25,5.60
2021,11,08,08,26,7.30
2021,11,08,08,27,10.30
2021,11,08,08,28,6.40
2021,11,08,08,29,8.00
2021,11,08,08,30,11.60
2021,11,08,08,31,8.10
2021,11,08,08,32,7.90
2021,11,08,08,33,7.40
2021,11,08,08,34,7.00
2021,11,08,08,35,7.10
2021,11,08,08,36,7.30
2021,11,08,08,37,5.70
2021,11,08,08,38,9.70
2021,11,08,08,39,9.50
2021,11,08,08,40,7.80
2021,11,08,08,41,8.90
2021,11,08,08,42,4.70
2021,11,08,08,43,5.70
2021,11,08,08,44,9.60
2021,11,08,08,45,7.60
2021,11,08,08,46,8.30
2021,11,08,08,47,9.60
2021,11,08,08,48,5.50
2021,11,08,08,49,4.80
2021,11,08,08,50,3.40
2021,11,08,08,51,5.60
2021,11,08,08,52,2.40
2021,11,08,08,53,5.50
2021,11,08,08,54,5.10
2021,11,08,08,55,6.50
2021,11,08,08,56,5.20
2021,11,08,08,57,7.20
2021,11,08,08,58,6.20
2021,11,08,08,59,10.20
2021,11,08,09,00,9.20
2021,11,08,09,01,7.00
2021,11,08,09,02,5.90
2021,11,08,09,03,4.80
2021,11,08,09,04,4.90
2021,11,08,09,05,5.90
2021,11,08,09,06,5.60
2021,11,08,09,07,7.60
2021,11,08,09,08,8.60
2021,11,08,09,09,6.30
2021,11,08,09,10,4.10
2021,11,08,09,11,6.60
2021,11,08,09,12,5.80
2021,11,08,09,13,6.00
2021,11,08,09,14,6.90
2021,11,08,09,15,7.00
2021,11,08,09,16,5.40
2021,11,08,09,17,8.90
2021,11,08,09,18,10.00
2021,11,08,09,19,9.80
2021,11,08,09,20,7.80
2021,11,08,09,21,7.50
2021,11,08,09,22,10.50
2021,11,08,09,23,8.30
2021,11,08,09,24,12.20
2021,11,08,09,25,7.80
2021,11,08,09,26,6.80
2021,11,08,09,27,7.40
2021,11,08,09,28,7.70
2021,11,08,09,29,7.00
2021,11,08,09,30,7.00
2021,11,08,09,31,7.80
2021,11,08,09,32,11.90
2021,11,08,09,33,8.40
2021,11,08,09,34,8.80
2021,11,08,09,35,8.50
2021,11,08,09,36,5.40
2021,11,08,09,37,4.20
2021,11,08,09,38,3.90
2021,11,08,09,39,6.20
2021,11,08,09,40,9.00
2021,11,08,09,41,4.80
2021,11,08,09,42,8.90
2021,11,08,09,43,8.20
2021,11,08,09,44,6.00
2021,11,08,09,45,9.30
2021,11,08,09,46,6.60
2021,11,08,09,47,4.60
2021,11,08,09,48,3.40
2021,11,08,09,49,7.10
2021,11,08,09,50,5.00
2021,11,08,09,51,6.70
2021,11,08,09,52,7.90
2021,11,08,09,53,9.60
2021,11,08,09,54,14.10
2021,11,08,09,55,11.40
2021,11,08,09,56,13.40
2021,11,08,09,57,15.70
2021,11,08,09,58,9.90
2021,11,08,09,59,7.70
2021,11,08,10,00,7.90
2021,11,08,10,01,9.00
2021,11,08,10,02,6.80
2021,11,08,10,03,9.40
2021,11,08,10,04,9.40
2021,11,08,10,05,10.20
2021,11,08,10,06,10.20
2021,11,08,10,07,6.90
2021,11,08,10,08,8.50
2021,11,08,10,09,11.70
2021,11,08,10,10,12.10
2021,11,08,10,11,8.60
2021,11,08,10,12,9.40
2021,11,08,10,13,7.40
2021,11,08,10,14,7.30
2021,11,08,10,15,7.90
2021,11,08,10,16,10.20
2021,11,08,10,17,9.20
2021,11,08,10,18,8.90
2021,11,08,10,19,5.40
2021,11,08,10,20,6.40
2021,11,08,10,21,5.80
2021,11,08,10,22,7.50
2021,11,08,10,23,5.90
2021,11,08,10,24,8.10
2021,11,08,10,25,9.50
2021,11,08,10,26,10.80
2021,11,08,10,27,8.10
2021,11,08,10,28,7.40
2021,11,08,10,29,8.60
2021,11,08,10,30,9.00
2021,11,08,10,31,10.20
2021,11,08,10,32,12.20
2021,11,08,10,33,13.80
2021,11,08,10,34,9.00
2021,11,08,10,35,10.90
2021,11,08,10,36,9.40
2021,11,08,10,37,7.90
2021,11,08,10,38,7.90
2021,11,08,10,39,10.50
2021,11,08,10,40,10.60
2021,11,08,10,41,9.80
2021,11,08,10,42,7.80
2021,11,08,10,43,8.10
2021,11,08,10,44,10.00
2021,11,08,10,45,9.10
2021,11,08,10,46,6.30
2021,11,08,10,47,9.70
2021,11,08,10,48,10.90
2021,11,08,10,49,13.30
2021,11,08,10,50,11.60
2021,11,08,10,51,11.00
2021,11,08,10,52,11.30
2021,11,08,10,53,13.50
2021,11,08,10,54,12.50
2021,11,08,10,55,13.40
2021,11,08,10,56,12.20
2021,11,08,10,57,13.10
2021,11,08,10,58,11.90
2021,11,08,10,59,13.40
2021,11,08,11,00,13.60
2021,11,08,11,01,14.50
2021,11,08,11,02,14.10
2021,11,08,11,03,12.80
2021,11,08,11,04,14.20
2021,11,08,11,05,14.90
2021,11,08,11,06,15.20
2021,11,08,11,07,14.20
2021,11,08,11,08,13.40
2021,11,08,11,09,12.30
2021,11,08,11,10,16.90
2021,11,08,11,11,14.00
2021,11,08,11,12,16.30
2021,11,08,11,13,16.00
2021,11,08,11,14,17.00
2021,11,08,11,15,17.00
2021,11,08,11,16,17.90
2021,11,08,11,17,17.20
2021,11,08,11,18,17.60
2021,11,08,11,19,14.60
2021,11,08,11,20,15.90
2021,11,08,11,21,16.60
2021,11,08,11,22,17.20
2021,11,08,11,23,17.80
2021,11,08,11,24,17.80
2021,11,08,11,25,16.30
2021,11,08,11,26,14.30
2021,11,08,11,27,14.30
2021,11,08,11,28,15.40
2021,11,08,11,29,18.50
2021,11,08,11,30,15.50
2021,11,08,11,31,13.50
2021,11,08,11,32,13.80
2021,11,08,11,33,18.40
2021,11,08,11,34,17.10
2021,11,08,11,35,12.50
2021,11,08,11,36,12.60
2021,11,08,11,37,13.30
2021,11,08,11,38,14.90
2021,11,08,11,39,14.90
2021,11,08,11,40,11.60
2021,11,08,11,41,13.80
2021,11,08,11,42,14.90
2021,11,08,11,43,14.60
2021,11,08,11,44,14.50
2021,11,08,11,45,16.50
2021,11,08,11,46,15.70
2021,11,08,11,47,14.60
2021,11,08,11,48,15.40
2021,11,08,11,49,16.90
2021,11,08,11,50,15.30
2021,11,08,11,51,14.10
2021,11,08,11,52,15.40
2021,11,08,11,53,16.30
2021,11,08,11,54,19.00
2021,11,08,11,55,18.70
2021,11,08,11,56,18.50
2021,11,08,11,57,17.80
2021,11,08,11,58,17.50
2021,11,08,11,59,14.60
2021,11,08,12,00,14.30
2021,11,08,12,01,14.80
2021,11,08,12,02,14.60
2021,11,08,12,03,14.90
2021,11,08,12,04,17.60
2021,11,08,12,05,16.90
2021,11,08,12,06,18.50
2021,11,08,12,07,13.20
2021,11,08,12,08,12.90
2021,11,08,12,09,15.60
2021,11,08,12,10,16.50
2021,11,08,12,11,14.60
2021,11,08,12,12,14.60
2021,11,08,12,13,16.30
2021,11,08,12,14,16.30
2021,11,08,12,15,13.10
2021,11,08,12,16,14.20
2021,11,08,12,17,15.80
2021,11,08,12,18,12.90
2021,11,08,12,19,12.70
2021,11,08,12,20,11.90
2021,11,08,12,21,13.00
2021,11,08,12,22,12.80
2021,11,08,12,23,14.00
2021,11,08,12,24,13.90
2021,11,08,12,25,13.40
2021,11,08,12,26,12.50
2021,11,08,12,27,12.00
2021,11,08,12,28,13.40
2021,11,08,12,29,12.30
2021,11,08,12,30,14.40
2021,11,08,12,31,14.30
2021,11,08,12,32,15.20
2021,11,08,12,33,14.00
2021,11,08,12,34,15.20
2021,11,08,12,35,12.20
2021,11,08,12,36,12.90
2021,11,08,12,37,14.50
2021,11,08,12,38,12.10
2021,11,08,12,39,11.30
2021,11,08,12,40,13.00
2021,11,08,12,41,10.40
2021,11,08,12,42,12.70
2021,11,08,12,43,12.90
2021,11,08,12,44,12.80
2021,11,08,12,45,12.80
2021,11,08,12,46,12.40
2021,11,08,12,47,11.80
2021,11,08,12,48,10.90
2021,11,08,12,49,9.20
2021,11,08,12,50,9.30
2021,11,08,12,51,12.30
2021,11,08,12,52,11.90
2021,11,08,12,53,11.20
2021,11,08,12,54,10.70
2021,11,08,12,55,11.00
2021,11,08,12,56,10.50
2021,11,08,12,57,11.40
2021,11,08,12,58,11.70
2021,11,08,12,59,13.40
2021,11,08,13,00,11.80
2021,11,08,13,01,10.60
2021,11,08,13,02,12.10
2021,11,08,13,03,11.70
2021,11,08,13,04,14.70
2021,11,08,13,05,14.90
2021,11,08,13,06,12.60
2021,11,08,13,07,12.90
2021,11,08,13,08,11.60
2021,11,08,13,09,12.90
2021,11,08,13,10,14.40
2021,11,08,13,11,13.40
2021,11,08,13,12,13.30
2021,11,08,13,13,12.20
2021,11,08,13,14,14.50
2021,11,08,13,15,12.20
2021,11,08,13,16,12.90
2021,11,08,13,17,15.40
2021,11,08,13,18,13.50
2021,11,08,13,19,12.50
2021,11,08,13,20,13.60
2021,11,08,13,21,14.50
2021,11,08,13,22,11.10
2021,11,08,13,23,13.20
2021,11,08,13,24,12.10
2021,11,08,13,25,12.00
2021,11,08,13,26,13.60
2021,11,08,13,27,11.00
2021,11,08,13,28,11.80
2021,11,08,13,29,10.40
2021,11,08,13,30,10.40
2021,11,08,13,31,12.50
2021,11,08,13,32,12.80
2021,11,08,13,33,12.50
2021,11,08,13,34,12.50
2021,11,08,13,35,12.20
2021,11,08,13,36,11.30
2021,11,08,13,37,13.90
2021,11,08,13,38,11.20
2021,11,08,13,39,11.60
2021,11,08,13,40,13.40
2021,11,08,13,41,13.70
2021,11,08,13,42,12.50
2021,11,08,13,43,12.50
2021,11,08,13,44,14.10
2021,11,08,13,45,14.50
2021,11,08,13,46,14.10
2021,11,08,13,47,14.30
2021,11,08,13,48,12.70
2021,11,08,13,49,11.70
2021,11,08,13,50,11.10
2021,11,08,13,51,12.40
2021,11,08,13,52,12.80
2021,11,08,13,53,14.10
2021,11,08,13,54,14.70
2021,11,08,13,55,13.70
2021,11,08,13,56,13.50
2021,11,08,13,57,15.20
2021,11,08,13,58,14.00
2021,11,08,13,59,14.40
2021,11,08,14,00,15.70
2021,11,08,14,01,13.70
2021,11,08,14,02,13.10
2021,11,08,14,03,13.20
2021,11,08,14,04,13.20
2021,11,08,14,05,12.90
2021,11,08,14,06,14.80
2021,11,08,14,07,13.10
2021,11,08,14,08,13.70
2021,11,08,14,09,13.10
2021,11,08,14,10,13.50
2021,11,08,14,11,13.60
2021,11,08,14,12,12.10
2021,11,08,14,13,11.50
2021,11,08,14,14,12.40
2021,11,08,14,15,11.40
2021,11,08,14,16,12.80
2021,11,08,14,17,13.20
2021,11,08,14,18,11.80
2021,11,08,14,19,11.80
2021,11,08,14,20,12.90
2021,11,08,14,21,12.50
2021,11,08,14,22,12.90
2021,11,08,14,23,14.80
2021,11,08,14,24,14.60
2021,11,08,14,25,13.80
2021,11,08,14,26,14.60
2021,11,08,14,27,13.60
2021,11,08,14,28,13.60
2021,11,08,14,29,14.30
2021,11,08,14,30,15.30
2021,11,08,14,31,14.90
2021,11,08,14,32,13.20
2021,11,08,14,33,15.30
2021,11,08,14,34,12.60
2021,11,08,14,35,13.20
2021,11,08,14,36,12.90
2021,11,08,14,37,11.10
2021,11,08,14,38,12.10
2021,11,08,14,39,11.10
2021,11,08,14,40,11.50
2021,11,08,14,41,11.70
2021,11,08,14,42,14.00
2021,11,08,14,43,13.20
2021,11,08,14,44,10.70
2021,11,08,14,45,9.10
2021,11,08,14,46,9.50
2021,11,08,14,47,8.90
2021,11,08,14,48,9.20
2021,11,08,14,49,10.40
2021,11,08,14,50,11.60
2021,11,08,14,51,9.40
2021,11,08,14,52,9.40
2021,11,08,14,53,11.40
2021,11,08,14,54,12.70
2021,11,08,14,55,12.50
2021,11,08,14,56,14.90
2021,11,08,14,57,14.10
2021,11,08,14,58,13.20
2021,11,08,14,59,12.50
2021,11,08,15,00,14.00
2021,11,08,15,01,13.40
2021,11,08,15,02,15.10
2021,11,08,15,03,13.60
2021,11,08,15,04,15.30
2021,11,08,15,05,13.40
2021,11,08,15,06,12.00
2021,11,08,15,07,14.50
2021,11,08,15,08,12.80
2021,11,08,15,09,12.60
2021,11,08,15,10,11.70
2021,11,08,15,11,11.70
2021,11,08,15,12,12.50
2021,11,08,15,13,11.10
2021,11,08,15,14,12.10
2021,11,08,15,15,15.70
2021,11,08,15,16,13.50
2021,11,08,15,17,15.10
2021,11,08,15,18,15.90
2021,11,08,15,19,16.30
2021,11,08,15,20,13.60
2021,11,08,15,21,14.70
2021,11,08,15,22,14.00
2021,11,08,15,23,13.90
2021,11,08,15,24,14.60
2021,11,08,15,25,16.20
2021,11,08,15,26,13.90
2021,11,08,15,27,14.80
2021,11,08,15,28,15.70
2021,11,08,15,29,14.30
2021,11,08,15,30,15.10
2021,11,08,15,31,15.70
2021,11,08,15,32,15.90
2021,11,08,15,33,14.50
2021,11,08,15,34,14.10
2021,11,08,15,35,12.20
2021,11,08,15,36,13.40
2021,11,08,15,37,16.10
2021,11,08,15,38,16.10
2021,11,08,15,39,13.30
2021,11,08,15,40,15.50
2021,11,08,15,41,15.20
2021,11,08,15,42,15.20
2021,11,08,15,43,14.80
2021,11,08,15,44,17.30
2021,11,08,15,45,14.40
2021,11,08,15,46,13.70
2021,11,08,15,47,15.30
2021,11,08,15,48,13.90
2021,11,08,15,49,12.90
2021,11,08,15,50,15.40
2021,11,08,15,51,14.00
2021,11,08,15,52,14.50
2021,11,08,15,53,16.30
2021,11,08,15,54,14.70
2021,11,08,15,55,15.10
2021,11,08,15,56,15.20
2021,11,08,15,57,16.00
2021,11,08,15,58,15.20
2021,11,08,15,59,16.00
2021,11,08,16,00,15.80
2021,11,08,16,01,14.70
2021,11,08,16,02,13.20
2021,11,08,16,03,14.50
2021,11,08,16,04,14.30
2021,11,08,16,05,13.20
2021,11,08,16,06,17.40
2021,11,08,16,07,13.20
2021,11,08,16,08,13.70
2021,11,08,16,09,13.90
2021,11,08,16,10,14.70
2021,11,08,16,11,16.00
2021,11,08,16,12,14.50
2021,11,08,16,13,13.50
2021,11,08,16,14,14.80
2021,11,08,16,15,17.10
2021,11,08,16,16,15.70
2021,11,08,16,17,15.60
2021,11,08,16,18,16.20
2021,11,08,16,19,13.70
2021,11,08,16,20,16.10
2021,11,08,16,21,15.60
2021,11,08,16,22,14.20
2021,11,08,16,23,12.50
2021,11,08,16,24,14.90
2021,11,08,16,25,14.00
2021,11,08,16,26,13.60
2021,11,08,16,27,12.90
2021,11,08,16,28,13.80
2021,11,08,16,29,13.40
2021,11,08,16,30,14.60
2021,11,08,16,31,15.20
2021,11,08,16,32,14.30
2021,11,08,16,33,14.80
2021,11,08,16,34,14.20
2021,11,08,16,35,14.50
2021,11,08,16,36,14.80
2021,11,08,16,37,15.00
2021,11,08,16,38,12.40
2021,11,08,16,39,14.90
2021,11,08,16,40,13.70
2021,11,08,16,41,14.80
2021,11,08,16,42,16.30
2021,11,08,16,43,15.30
2021,11,08,16,44,13.20
2021,11,08,16,45,13.50
2021,11,08,16,46,12.50
2021,11,08,16,47,12.90
2021,11,08,16,48,13.30
2021,11,08,16,49,14.50
2021,11,08,16,50,14.20
2021,11,08,16,51,17.30
2021,11,08,16,52,16.60
2021,11,08,16,53,13.00
2021,11,08,16,54,12.50
2021,11,08,16,55,12.10
2021,11,08,16,56,12.30
2021,11,08,16,57,13.30
2021,11,08,16,58,13.90
2021,11,08,16,59,12.20
2021,11,08,17,00,11.30
2021,11,08,17,01,11.00
2021,11,08,17,02,13.20
2021,11,08,17,03,12.20
2021,11,08,17,04,13.10
2021,11,08,17,05,12.30
2021,11,08,17,06,14.40
2021,11,08,17,07,15.10
2021,11,08,17,08,15.40
2021,11,08,17,09,11.40
2021,11,08,17,10,13.10
2021,11,08,17,11,15.50
2021,11,08,17,12,13.10
2021,11,08,17,13,14.70
2021,11,08,17,14,13.50
2021,11,08,17,15,13.50
2021,11,08,17,16,12.10
2021,11,08,17,17,13.90
2021,11,08,17,18,11.30
2021,11,08,17,19,10.80
2021,11,08,17,20,11.50
2021,11,08,17,21,11.90
2021,11,08,17,22,14.50
2021,11,08,17,23,11.00
2021,11,08,17,24,12.80
2021,11,08,17,25,11.90
2021,11,08,17,26,12.00
2021,11,08,17,27,11.40
2021,11,08,17,28,13.10
2021,11,08,17,29,12.90
2021,11,08,17,30,11.60
2021,11,08,17,31,10.90
2021,11,08,17,32,9.50
2021,11,08,17,33,10.40
2021,11,08,17,34,9.70
2021,11,08,17,35,10.50
2021,11,08,17,36,13.00
2021,11,08,17,37,11.10
2021,11,08,17,38,13.70
2021,11,08,17,39,13.70
2021,11,08,17,40,13.60
2021,11,08,17,41,10.10
2021,11,08,17,42,9.70
2021,11,08,17,43,10.70
2021,11,08,17,44,11.90
2021,11,08,17,45,8.50
2021,11,08,17,46,10.10